User: anonymous
Location: Young's Pond
(41.2695°N, 72.7766°W)
Time: 16:14:38
(UTC-04:00)
Language:

Spot 4 - Orbit

View from above orbital plane
View from above orbital plane
View from above satellite
View from above satellite

Ground track
Ground track

The orbit data is extracted from the following two-line orbital elements,

1 25260U 98017A   14242.56751918  .00000384  00000-0  10419-3 0  4319
2 25260 098.4537 307.0690 0013405 162.4990 197.6671 14.53012479853461
Epoch (UTC): 30 August 2014 13:37:13
Eccentricity: 0.0013405
inclination: 98.4537°
perigee height: 706 km
apogee height: 725 km
right ascension of ascending node: 307.0690°
argument of perigee: 162.4990°
revolutions per day: 14.53012479
mean anomaly at epoch: 197.6671°
orbit number at epoch: 85346

The dashed part of the orbit path shows where the satellite is in the earth's shadow,  

DLR